EW2485 Weather Reports


Display with metric or nautical units.
time (UTC)temp
F
wind
direction
speed
MPH
gust
MPH
rain 1hr
in
rain 24hr
in
rain mn
in
humidity
%
barometer
mb
20260506031541 51 295 3.0 5.0 0.00 0.13 0.13 81 1008.9
20260506030052 51 324 4.0 6.0 0.00 0.13 0.13 81 1009.0
20260506024602 51 46 2.0 5.0 0.00 0.13 0.13 80 1008.9
20260506023026 52 323 4.0 12.0 0.00 0.13 0.13 80 1009.1
20260506021603 52 13 2.0 11.0 0.00 0.13 0.13 81 1009.1
20260506020035 52 13 3.0 6.0 0.00 0.13 0.13 81 1009.1
20260506014557 53 342 5.0 12.0 0.00 0.13 0.13 80 1008.5
20260506013027 53 354 9.0 13.0 0.00 0.13 0.13 80 1007.9
20260506011601 54 353 7.0 16.0 0.00 0.13 0.13 80 1008.0
20260506010007 54 1 12.0 18.0 0.00 0.13 0.13 79 1007.6
20260506004532 56 345 7.0 21.0 0.00 0.13 0.13 80 1007.7
20260506003049 57 6 17.0 33.0 0.00 0.13 0.13 79 1007.8
20260506001522 59 330 7.0 15.0 0.00 0.13 0.13 81 1007.5
20260506000045 60 283 4.0 13.0 0.00 0.13 0.13 80 1007.2
20260505234502 61 20 6.0 16.0 0.00 0.13 0.13 80 1006.7
20260505233031 61 329 7.0 17.0 0.00 0.13 0.13 80 1006.8
20260505231523 61 234 3.0 12.0 0.00 0.13 0.13 80 1006.5
20260505224541 63 223 6.0 19.0 0.00 0.13 0.13 79 1005.6
20260505223106 65 204 15.0 32.0 0.00 0.13 0.13 75 1005.7
20260505221525 67 277 4.0 9.0 0.00 0.13 0.13 74 1005.3
20260505220042 67 321 4.0 15.0 0.00 0.13 0.13 75 1005.0
20260505214619 66 209 5.0 15.0 0.00 0.13 0.13 77 1005.1
20260505213022 66 178 4.0 12.0 0.00 0.13 0.13 79 1005.0
20260505211538 65 151 4.0 13.0 0.00 0.13 0.13 80 1004.7
20260505210056 64 314 5.0 10.0 0.00 0.13 0.13 81 1004.9
20260505204520 63 193 4.0 9.0 0.02 0.13 0.13 83 1004.8
20260505203053 62 178 4.0 8.0 0.05 0.13 0.13 82 1005.0
20260505201534 61 188 3.0 5.0 0.10 0.13 0.13 83 1005.6
20260505200006 60 187 4.0 9.0 0.10 0.12 0.12 83 1005.9
20260505194536 60 178 4.0 11.0 0.09 0.11 0.11 82 1006.4
20260505193054 62 183 6.0 13.0 0.06 0.08 0.08 80 1006.3
20260505191508 64 216 3.0 7.0 0.00 0.02 0.02 77 1005.9
20260505190036 66 290 5.0 16.0 0.00 0.02 0.02 73 1005.6
20260505184552 70 264 6.0 18.0 0.00 0.02 0.02 64 1004.5
20260505183008 73 213 7.0 33.0 0.00 0.02 0.02 54 1004.0
20260505181532 74 169 9.0 21.0 0.00 0.02 0.02 52 1003.9
20260505180059 75 154 9.0 22.0 0.00 0.02 0.02 52 1004.0
20260505174555 74 165 4.0 21.0 0.00 0.02 0.02 55 1004.4
20260505173026 72 216 7.0 16.0 0.00 0.02 0.02 55 1004.8
20260505171551 72 181 8.0 20.0 0.00 0.02 0.02 55 1004.8
20260505170020 73 218 9.0 26.0 0.00 0.02 0.02 53 1004.8
20260505164538 74 194 13.0 23.0 0.00 0.02 0.02 52 1004.7
20260505163057 74 243 14.0 27.0 0.00 0.02 0.02 53 1004.4
20260505161525 74 183 12.0 28.0 0.00 0.02 0.02 53 1004.5
20260505153029 75 230 17.0 31.0 0.00 0.02 0.02 53 1005.0
20260505151600 75 227 19.0 36.0 0.00 0.02 0.02 53 1004.9
20260505124553 64 207 11.0 21.0 0.00 0.02 0.02 71 1005.7
20260505123027 62 174 9.0 16.0 0.00 0.02 0.02 75 1005.9
20260505121540 59 191 4.0 14.0 0.00 0.02 0.02 78 1005.9
20260505120057 58 143 6.0 13.0 0.00 0.02 0.02 79 1006.1
20260505114517 57 189 4.0 13.0 0.00 0.02 0.02 80 1006.1
20260505113039 56 204 4.0 10.0 0.00 0.02 0.02 82 1005.9
20260505111603 55 157 2.0 6.0 0.00 0.02 0.02 83 1005.9
20260505101511 56 163 5.0 14.0 0.02 0.02 0.02 79 1005.7
20260505100044 56 162 4.0 8.0 0.00 0.00 0.00 74 1006.0
20260505094533 56 213 3.0 8.0 0.00 0.00 0.00 73 1005.8
20260505093056 56 137 4.0 7.0 0.00 0.00 0.00 72 1005.6
20260505091507 56 178 2.0 9.0 0.00 0.00 0.00 71 1005.6
20260505090034 57 171 2.0 10.0 0.00 0.00 0.00 71 1005.4
20260505084559 57 174 4.0 9.0 0.00 0.00 0.00 71 1005.3
20260505083025 57 135 2.0 6.0 0.00 0.00 0.00 70 1005.3
20260505081543 58 189 6.0 12.0 0.00 0.00 0.00 70 1005.2
20260505080103 58 189 5.0 9.0 0.00 0.00 0.00 70 1005.3
20260505074518 57 186 3.0 9.0 0.00 0.00 0.00 70 1005.2
20260505073006 57 156 2.0 6.0 0.00 0.00 0.00 70 1005.3
20260505071559 58 135 4.0 6.0 0.00 0.00 0.00 69 1005.2
20260505070028 58 172 5.0 11.0 0.00 0.00 0.00 69 1005.4
20260505064543 58 174 3.0 9.0 0.00 0.00 0.00 68 1005.5
20260505063102 58 162 5.0 10.0 0.00 0.00 0.00 69 1005.6
20260505061525 58 163 4.0 7.0 0.00 0.00 0.00 67 1005.5
20260505060050 59 187 4.0 11.0 0.00 0.00 0.00 66 1005.6
20260505054602 60 186 4.0 12.0 0.00 0.00 0.00 65 1005.5
20260505053026 60 195 5.0 11.0 0.00 0.00 0.00 64 1005.8
20260505051558 60 217 4.0 10.0 0.00 0.00 0.00 64 1005.8
20260505041547 59 217 3.0 7.0 0.00 0.00 0.00 64 1006.0
20260505040012 59 150 2.0 7.0 0.00 0.00 0.00 63 1005.8
20260505034529 59 163 2.0 6.0 0.00 0.00 0.00 63 1005.8
20260505033049 59 152 2.0 5.0 0.00 0.00 0.00 62 1005.8